{"data":{"norad_id":40001,"epoch":"2026-09-17T22:49:23.120256Z","epoch_age_seconds":234573,"freshness":"STALE","line1":"1 40001U 14032A   26260.95096204 -.00000040  00000+0  00000+0 0  9999","line2":"2 40001  65.1732 310.5189 0009401 207.5444 152.4753  2.13101309 95436","mean_motion":2.13101309,"eccentricity":0.0009401,"inclination_deg":65.1732,"raan_deg":310.5189,"arg_perigee_deg":207.5444,"mean_anomaly_deg":152.4753,"bstar":0,"rev_number":9543,"period_min":675.73493882199,"perigee_km":19105.962423261,"apogee_km":19153.922714467,"semimajor_km":25508.079568864,"source":"CELESTRAK","updated_at":"2026-09-20T09:00:46.276361Z"}}